Date,TemperatureHighF,TemperatureAvgF,TemperatureLowF,DewpointHighF,DewpointAvgF,DewpointLowF,HumidityHigh,HumidityAvg,HumidityLow,PressureMaxIn,PressureMinIn,WindSpeedMaxMPH,WindSpeedAvgMPH,GustSpeedMaxMPH,PrecipitationSumIn
2013-1-4,35,33,29,24,23,22,78,67,58,0.00,40.00,20,14,30,0.00
2013-1-5,37,32,24,35,28,22,95,87,70,0.00,40.00,18,10,26,0.00
2013-1-6,37,27,20,35,22,16,95,82,70,0.00,40.00,17,9,27,0.00
2013-1-7,41,29,18,29,23,17,98,79,51,0.00,40.00,21,9,31,0.00
2013-1-8,47,37,30,34,29,27,87,73,48,0.00,40.00,14,9,24,0.00
2013-1-9,50,40,27,35,30,25,95,71,41,0.00,40.00,18,8,34,0.00
2013-1-10,43,34,26,39,31,25,98,90,52,0.00,40.00,10,4,16,0.00
2013-1-11,56,50,39,51,48,39,98,92,79,0.00,40.00,22,11,38,0.00
2013-1-12,54,42,28,48,36,25,94,80,72,0.00,40.00,23,13,32,0.00
2013-1-13,29,24,20,27,21,14,94,90,80,0.00,40.00,11,7,17,0.00
2013-1-14,26,21,16,15,11,-100,93,73,60,0.00,40.00,6,2,11,0.00
2013-1-15,30,24,14,23,16,13,96,76,52,0.00,40.00,6,2,11,0.00
2013-1-16,39,28,17,26,19,16,97,73,48,0.00,40.00,28,11,35,0.00
2013-1-22,15,11,2,2,0,-3,78,60,53,0.00,40.00,14,7,21,0.00
2013-1-23,32,20,13,16,8,2,72,60,49,0.00,40.00,25,9,34,0.00
2013-1-24,24,17,8,11,4,-1,72,58,48,0.00,40.00,22,9,34,0.00
2013-1-25,37,27,21,21,15,7,84,61,46,0.00,40.00,22,9,31,0.00
2013-1-26,32,23,13,15,12,9,84,63,43,0.00,40.00,13,5,23,0.00
2013-1-27,29,27,26,21,19,14,74,69,57,0.00,40.00,8,5,14,0.00
2013-1-28,56,46,40,55,45,40,98,97,97,0.00,40.00,14,4,22,0.00
2013-1-29,64,57,48,61,56,47,97,96,86,0.00,40.00,24,11,40,0.00
2013-1-30,51,34,20,50,32,14,98,91,74,0.00,40.00,21,11,39,0.00
2013-1-31,17,12,5,9,4,-3,76,68,61,0.00,40.00,24,15,39,0.00
2013-2-1,22,11,2,14,1,-4,75,64,53,0.00,40.00,19,12,28,0.00
2013-2-2,28,22,15,25,16,8,91,79,66,0.00,40.00,24,10,29,0.00
2013-2-3,29,23,17,22,16,11,94,73,51,0.00,40.00,19,8,29,0.00
2013-2-4,35,28,20,24,20,16,88,73,61,0.00,40.00,20,7,28,0.00
2013-2-5,38,30,19,30,24,16,92,82,71,0.00,40.00,21,7,26,0.00
2013-2-6,45,35,25,32,28,23,93,77,57,0.00,40.00,15,5,19,0.00
2013-2-7,38,36,34,37,34,32,97,94,81,0.00,40.00,24,6,30,0.00
2013-2-8,34,29,26,33,25,22,97,84,77,0.00,40.00,24,12,32,0.00
2013-2-9,37,32,28,32,26,23,88,79,68,0.00,40.00,14,7,24,0.00
2013-2-10,51,43,37,48,40,29,96,88,55,0.00,40.00,32,14,49,0.00
2013-2-11,45,35,32,31,24,22,72,65,55,0.00,40.00,35,19,52,0.00
2013-2-12,38,32,27,26,25,23,94,76,61,0.00,40.00,13,6,21,0.00
2013-2-13,47,35,27,34,29,25,97,82,49,0.00,40.00,15,5,18,0.00
2013-2-14,41,39,35,35,32,29,92,76,60,0.00,40.00,18,10,28,0.00
2013-2-15,35,30,23,33,19,11,93,66,39,0.00,40.00,23,11,29,0.00
2013-2-16,28,22,15,17,12,8,78,66,50,0.00,40.00,19,10,24,0.00
2013-2-17,37,25,12,22,14,8,83,63,45,0.00,40.00,11,5,23,0.00
2013-2-18,54,41,26,48,33,20,97,73,59,0.00,40.00,28,14,41,0.00
2013-2-19,26,19,13,20,10,5,79,69,57,0.00,40.00,26,17,47,0.00
2013-2-20,23,16,7,15,9,2,82,73,60,0.00,40.00,21,8,28,0.00
2013-2-21,31,24,15,26,20,12,96,83,74,0.00,40.00,18,7,33,0.00
2013-2-22,34,30,27,33,27,22,98,89,72,0.00,40.00,24,10,33,0.00
2013-2-23,27,26,25,22,18,17,83,73,68,0.00,40.00,14,9,24,0.00
2013-2-25,45,40,36,32,30,29,75,68,57,0.00,40.00,13,5,25,0.00
2013-2-26,37,34,32,33,31,27,99,89,68,0.00,40.00,18,10,35,0.00
2013-2-27,34,33,31,33,32,31,99,97,92,0.00,40.00,15,11,23,0.00
2013-2-28,37,34,33,33,32,28,96,90,76,0.00,40.00,19,12,24,0.00
2013-3-1,32,28,26,29,24,21,89,82,74,0.00,40.00,21,13,31,0.00
2013-3-2,30,26,16,22,17,12,83,69,55,0.00,40.00,18,10,21,0.00
2013-3-3,36,24,12,21,12,9,96,64,34,0.00,40.00,8,2,10,0.00
2013-3-4,36,31,24,31,24,13,88,76,63,0.00,40.00,16,7,27,0.00
2013-3-5,34,32,29,34,31,28,98,96,87,0.00,40.00,24,10,35,0.00
2013-3-6,33,30,26,29,25,23,98,84,71,0.00,40.00,25,12,34,0.00
2013-3-7,40,31,27,25,24,21,86,74,49,0.00,40.00,9,4,14,0.00
2013-3-8,42,32,21,33,26,20,95,80,59,0.00,40.00,12,5,20,0.00
2013-3-9,50,40,35,40,36,31,93,84,63,0.00,40.00,11,6,21,0.00
2013-3-12,40,33,28,32,26,20,95,76,55,0.00,40.00,20,14,38,0.00
2013-3-13,25,25,25,20,20,20,81,81,80,0.00,40.00,12,10,23,0.00
2013-3-14,45,37,28,31,27,22,87,69,51,0.00,40.00,12,6,21,0.00
2013-3-15,53,41,31,43,35,29,95,81,47,0.00,40.00,13,4,16,0.00
2013-3-16,42,36,31,40,32,26,97,87,68,0.00,40.00,18,10,24,0.00
2013-3-17,37,33,29,28,25,21,83,71,58,0.00,40.00,14,8,23,0.00
2013-3-18,38,33,26,36,28,13,96,85,58,0.00,40.00,23,10,42,0.00
2013-3-19,38,28,20,17,13,10,68,54,36,0.00,40.00,24,15,36,0.00
2013-10-12,73,64,57,62,49,-100,89,64,31,0.00,40.00,11,5,18,0.00
2013-10-13,67,55,43,44,39,32,90,60,28,0.00,40.00,11,2,16,0.00
2013-10-14,68,53,40,46,39,31,98,64,25,0.00,40.00,10,3,18,0.00
2013-10-15,70,59,51,57,47,39,82,65,55,0.00,40.00,19,7,28,0.00
2013-10-16,53,52,49,45,43,41,79,72,67,0.00,40.00,16,9,25,0.00
2013-10-17,61,51,43,47,43,35,95,75,38,0.00,40.00,17,5,25,0.00
2013-10-18,53,48,43,43,39,35,92,74,52,0.00,40.00,12,6,19,0.00
2013-10-31,63,58,46,63,56,42,100,94,83,0.00,40.00,14,8,27,0.00
2013-11-1,51,48,44,45,43,40,94,84,67,0.00,40.00,15,9,26,0.00
2013-11-2,51,43,36,42,34,-100,93,76,53,0.00,40.00,15,5,24,0.00
2013-11-3,54,42,30,39,33,29,99,73,45,0.00,40.00,9,4,20,0.00
2013-11-4,59,52,43,44,39,35,73,63,48,0.00,40.00,24,9,34,0.00
2013-11-5,57,54,53,52,49,44,95,82,70,0.00,40.00,18,7,27,0.00
2013-11-6,57,48,37,56,43,28,98,85,66,0.00,40.00,17,10,29,0.00
2013-12-22,34,29,21,33,27,16,98,89,79,0.00,40.00,15,9,21,0.00
2013-12-23,20,9,2,16,2,-6,81,72,66,0.00,40.00,18,9,27,0.00
2013-12-24,20,8,-3,11,0,-10,74,68,54,0.00,40.00,11,5,16,0.00
2013-12-25,29,26,21,25,20,10,87,79,63,0.00,40.00,16,11,21,0.00
2013-12-26,38,29,18,30,22,13,89,73,59,0.00,40.00,16,8,23,0.00
2013-12-27,44,36,27,32,29,26,96,76,55,0.00,40.00,14,7,25,0.00
2013-12-28,52,42,36,33,31,30,81,65,47,0.00,40.00,13,9,19,0.00